Weather observations for the past three days for
Cairns Army Air Field / Ozark
Metric (Imperial)
Date Time (cdt) Wind (kph) Vis. (km) Weather Sky Cond. Temperature (ºC) Relative Humidity Wind Chill (°C) Heat Index (°C) Pressure Precipitation (cm)
Air Dwpt 6 hour altimeter (cm) sea level (mb) 1 hr 3 hr 6 hr
Max. Min.
21 08:55 SE 7 16.09 Fair CLR 24.2 18.1 69% 25 76.23 1016.2
21 07:55 E 6 16.09 Fair CLR 21.6 18 80% 76.17 1015.6
21 06:55 NE 9 16.09 Fair CLR 19 17.3 19.6 16.7 90% 76.12 1014.9
21 05:55 NE 7 16.09 Fair CLR 16.9 15.6 92% 76.07 1014.2
21 04:55 Calm 16.09 Fair CLR 16.9 15.6 92% 76.05 1013.9
21 03:55 NW 6 16.09 Fair CLR 17.2 15.9 92% 76.05 1013.9
21 02:55 NE 7 16.09 Fair CLR 18 16.7 92% 76 1013.2
21 01:55 Calm 16.09 Fair CLR 18.1 16.4 90% 76.05 1013.9
21 00:55 Calm 16.09 Fair CLR 19.6 17.9 26.3 19.1 90% 76.07 1014.2
20 23:55 Calm 16.09 Fair CLR 19.2 17.1 88% 76.07 1014.2
20 22:55 Calm 16.09 Fair CLR 20.9 18.1 84% 76.1 1014.5
20 21:55 Calm 16.09 Fair CLR 21.4 17.8 80% 76.1 1014.5
20 20:55 Calm 16.09 Fair CLR 22.9 18.4 76% 76.07 1014.2
20 19:55 Calm 16.09 Fair CLR 24.6 17.6 65% 26 76.05 1013.9
20 18:55 NE 7 16.09 Fair CLR 26.4 17.7 28.2 25 59% 27 76.02 1013.5
20 17:55 NE 13 16.09 Partly Cloudy SCT041 27.9 17.1 52% 29 76 1013.2
20 16:55 N 11 16.09 Fair CLR 27.8 16.7 51% 28 76.02 1013.5
20 15:55 Calm 16.09 A Few Clouds FEW036 27.4 16.9 53% 28 76.02 1013.5
20 14:55 NE 13 16.09 Mostly Cloudy BKN034 27 16.9 54% 28 76.07 1014.2
20 13:55 Calm 16.09 Partly Cloudy SCT030 25.7 16.5 57% 27 76.1 1014.5
20 12:55 E 15 16.09 Partly Cloudy SCT027 SCT190 25.7 17.3 25.9 20.3 60% 27 76.15 1015.2
20 11:55 E 15 16.09 Mostly Cloudy BKN027 24.4 17.4 65% 25 76.17 1015.6
20 09:55 E 13 16.09 Mostly Cloudy BKN022 BKN028 24.8 17.3 63% 26 76.15 1015.2
20 08:55 E 15 16.09 Partly Cloudy SCT016 24 18.4 71% 25 76.12 1014.9
20 07:55 NE 11 16.09 A Few Clouds FEW006 21.5 18.9 85% 76.07 1014.2
20 06:55 NE 9 16.09 Fair CLR 20.3 18.6 21.1 19.1 90% 76.07 1014.2
20 04:55 NE 6 16.09 Fair CLR 19.6 18.4 93% 76 1013.1
19 17:55 NW 9 16.09 Partly Cloudy SCT045 29.5 17.6 49% 30 75.87 1011.5
19 14:55 N 13 16.09 A Few Clouds FEW041 29.4 18.2 51% 30 75.92 1012.1
19 13:55 W 17 16.09 Partly Cloudy SCT040 SCT190 28.8 18.2 53% 30 75.97 1012.8
19 12:55 NW 9 16.09 A Few Clouds FEW130 FEW170 28.2 17.7 28.3 20.4 53% 29 76 1013.2
19 10:55 NW 15 4.83 A Few Clouds with Haze FEW025 25.9 18.3 63% 27 76.07 1014.2
19 09:55 NW 15 16.09 Partly Cloudy SCT016 24.4 19 72% 25 76.07 1014.2
18 17:55 SW 13 16.09 Fair CLR 26.5 19.8 67% 28 75.82 1010.8
18 16:55 W 17 16.09 Fair CLR 26.4 19.3 65% 28 75.79 1010.4
18 14:55 SW 22 16.09 Fair CLR 27.7 19.2 60% 29 75.82 1010.8
18 13:55 S 20 16.09 A Few Clouds FEW140 FEW170 FEW190 25.2 19.1 69% 26 75.9 1011.8
18 12:55 S 7 16.09 A Few Clouds FEW190 22.8 19.3 22.8 20.8 81% 75.95 1012.5 1.45
Date Time (cdt) Wind (kph) Vis. (km) Weather Sky Cond. Air Dwpt Max. Min. Relative Humidity Wind Chill (°C) Heat Index (°C) altimeter (cm) sea level (mb) 1 hr 3 hr 6 hr
6 hour
Temperature (ºC) Pressure Precipitation (cm)